Hourly Weather Ichichali

Today, 4 August, Tuesday

Time Temperature Precipitation Wind Pressure Humidity
00:00 +9°C° 0 mm 1 mps 623 mmHg 85%
01:00 +9°C° 0 mm 1 mps 623 mmHg 85%
02:00 +9°C° 0 mm 1 mps 623 mmHg 85%
03:00 +9°C° 0 mm 1 mps 623 mmHg 84%
04:00 +9°C° 0 mm 1 mps 624 mmHg 84%
05:00 +10°C° 0 mm 1 mps 624 mmHg 83%
06:00 +10°C° 0 mm 1 mps 624 mmHg 83%
07:00 +12°C° 0 mm 1 mps 625 mmHg 77%
08:00 +14°C° 0 mm 1 mps 625 mmHg 70%
09:00 +15°C° 0 mm 1 mps 626 mmHg 64%
10:00 +16°C° 0 mm 1 mps 626 mmHg 63%
11:00 +16°C° 0 mm 2 mps 626 mmHg 62%
12:00 +17°C° 0 mm 2 mps 626 mmHg 62%
13:00 +17°C° 0.1 mm 2 mps 626 mmHg 63%
14:00 +17°C° 0.1 mm 2 mps 626 mmHg 64%
15:00 +17°C° 0.1 mm 2 mps 625 mmHg 65%
16:00 +16°C° 0.1 mm 2 mps 625 mmHg 68%
17:00 +16°C° 0.1 mm 1 mps 625 mmHg 70%
18:00 +15°C° 0.1 mm 1 mps 625 mmHg 73%
19:00 +14°C° 0 mm 1 mps 624 mmHg 75%
20:00 +12°C° 0 mm 1 mps 623 mmHg 78%
21:00 +11°C° 0 mm 1 mps 623 mmHg 81%
22:00 +10°C° 0 mm 1 mps 622 mmHg 80%
23:00 +10°C° 0 mm 1 mps 622 mmHg 80%

Tomorrow, 5 August, Wednesday

Time Temperature Precipitation Wind Pressure Humidity
00:00 +9°C° 0 mm 2 mps 622 mmHg 79%
01:00 +8°C° 0 mm 2 mps 621 mmHg 79%
02:00 +9°C° 0 mm 1 mps 621 mmHg 78%
03:00 +9°C° 0 mm 1 mps 621 mmHg 78%
04:00 +9°C° 0 mm 1 mps 621 mmHg 77%
05:00 +10°C° 0 mm 1 mps 621 mmHg 77%
06:00 +10°C° 0 mm 1 mps 621 mmHg 77%
07:00 +12°C° 0 mm 2 mps 622 mmHg 70%
08:00 +14°C° 0 mm 2 mps 623 mmHg 63%
09:00 +16°C° 0 mm 2 mps 623 mmHg 57%
10:00 +17°C° 0 mm 2 mps 623 mmHg 54%
11:00 +18°C° 0 mm 2 mps 624 mmHg 50%
12:00 +18°C° 0 mm 3 mps 624 mmHg 47%
13:00 +18°C° 0 mm 3 mps 624 mmHg 48%
14:00 +19°C° 0 mm 3 mps 624 mmHg 49%
15:00 +19°C° 0 mm 3 mps 624 mmHg 51%
16:00 +18°C° 0 mm 3 mps 623 mmHg 57%
17:00 +17°C° 0 mm 2 mps 623 mmHg 63%
18:00 +16°C° 0 mm 2 mps 623 mmHg 69%
19:00 +14°C° 0 mm 2 mps 623 mmHg 72%
20:00 +12°C° 0 mm 2 mps 622 mmHg 75%
21:00 +10°C° 0 mm 2 mps 622 mmHg 78%
22:00 +9°C° 0 mm 2 mps 622 mmHg 78%
23:00 +9°C° 0 mm 2 mps 622 mmHg 78%

Day after tomorrow, 6 August, Thursday

Time Temperature Precipitation Wind Pressure Humidity
00:00 +9°C° 0 mm 2 mps 621 mmHg 78%
01:00 +9°C° 0 mm 2 mps 621 mmHg 78%
02:00 +8°C° 0 mm 2 mps 621 mmHg 79%
03:00 +8°C° 0 mm 2 mps 621 mmHg 79%
04:00 +8°C° 0 mm 2 mps 622 mmHg 79%
05:00 +9°C° 0 mm 2 mps 622 mmHg 79%
06:00 +9°C° 0 mm 2 mps 622 mmHg 79%
07:00 +12°C° 0 mm 2 mps 623 mmHg 73%
08:00 +14°C° 0 mm 2 mps 624 mmHg 66%
09:00 +16°C° 0 mm 2 mps 625 mmHg 60%
10:00 +16°C° 0 mm 2 mps 625 mmHg 56%
11:00 +17°C° 0 mm 3 mps 625 mmHg 52%
12:00 +18°C° 0 mm 3 mps 626 mmHg 49%
13:00 +19°C° 0 mm 3 mps 626 mmHg 49%
14:00 +19°C° 0 mm 3 mps 626 mmHg 48%
15:00 +19°C° 0 mm 3 mps 626 mmHg 48%
16:00 +18°C° 0 mm 2 mps 626 mmHg 54%
17:00 +18°C° 0 mm 2 mps 625 mmHg 59%
18:00 +17°C° 0 mm 2 mps 625 mmHg 64%
19:00 +15°C° 0 mm 2 mps 625 mmHg 67%
20:00 +14°C° 0 mm 2 mps 624 mmHg 71%
21:00 +12°C° 0 mm 2 mps 624 mmHg 74%
22:00 +12°C° 0 mm 2 mps 624 mmHg 74%
23:00 +10°C° 0 mm 2 mps 624 mmHg 75%

7 August, Friday

Time Temperature Precipitation Wind Pressure Humidity
00:00 +10°C° 0 mm 2 mps 624 mmHg 75%
01:00 +10°C° 0 mm 2 mps 623 mmHg 74%
02:00 +10°C° 0 mm 2 mps 623 mmHg 74%
03:00 +10°C° 0 mm 2 mps 623 mmHg 73%
04:00 +10°C° 0 mm 2 mps 623 mmHg 72%
05:00 +12°C° 0 mm 2 mps 624 mmHg 71%
06:00 +12°C° 0 mm 2 mps 624 mmHg 70%
07:00 +14°C° 0 mm 2 mps 625 mmHg 65%
08:00 +16°C° 0 mm 2 mps 625 mmHg 60%
09:00 +18°C° 0 mm 2 mps 626 mmHg 55%
10:00 +19°C° 0 mm 2 mps 626 mmHg 53%
11:00 +20°C° 0 mm 2 mps 626 mmHg 51%
12:00 +21°C° 0 mm 2 mps 627 mmHg 50%
13:00 +21°C° 0 mm 2 mps 627 mmHg 50%
14:00 +21°C° 0 mm 2 mps 626 mmHg 50%
15:00 +21°C° 0 mm 2 mps 626 mmHg 50%
16:00 +20°C° 0.1 mm 2 mps 626 mmHg 55%
17:00 +20°C° 0.1 mm 2 mps 626 mmHg 60%
18:00 +20°C° 0.1 mm 1 mps 626 mmHg 66%
19:00 +18°C° 0 mm 1 mps 625 mmHg 70%
20:00 +15°C° 0 mm 1 mps 624 mmHg 74%
21:00 +14°C° 0 mm 1 mps 624 mmHg 79%
22:00 +13°C° 0 mm 1 mps 624 mmHg 79%
23:00 +13°C° 0 mm 1 mps 623 mmHg 79%

8 August, Saturday

Time Temperature Precipitation Wind Pressure Humidity
00:00 +13°C° 0 mm 1 mps 623 mmHg 80%
01:00 +12°C° 0 mm 1 mps 623 mmHg 79%
02:00 +12°C° 0 mm 1 mps 622 mmHg 79%
03:00 +12°C° 0 mm 1 mps 622 mmHg 78%
04:00 +12°C° 0 mm 1 mps 622 mmHg 78%
05:00 +13°C° 0 mm 1 mps 623 mmHg 77%
06:00 +13°C° 0 mm 1 mps 623 mmHg 76%
07:00 +15°C° 0 mm 1 mps 623 mmHg 69%
08:00 +18°C° 0 mm 1 mps 624 mmHg 62%
09:00 +20°C° 0 mm 1 mps 624 mmHg 55%
10:00 +21°C° 0 mm 1 mps 625 mmHg 52%
11:00 +22°C° 0 mm 1 mps 625 mmHg 49%
12:00 +23°C° 0 mm 1 mps 625 mmHg 46%
13:00 +23°C° 0 mm 2 mps 625 mmHg 46%
14:00 +23°C° 0 mm 2 mps 624 mmHg 47%
15:00 +23°C° 0 mm 2 mps 624 mmHg 47%
16:00 +23°C° 0 mm 1 mps 624 mmHg 52%
17:00 +22°C° 0 mm 1 mps 623 mmHg 57%
18:00 +21°C° 0 mm 1 mps 623 mmHg 62%
19:00 +19°C° 0 mm 1 mps 623 mmHg 66%
20:00 +18°C° 0 mm 1 mps 622 mmHg 69%
21:00 +15°C° 0 mm 1 mps 621 mmHg 73%
22:00 +15°C° 0 mm 1 mps 621 mmHg 74%
23:00 +14°C° 0 mm 1 mps 621 mmHg 76%

9 August, Sunday

Time Temperature Precipitation Wind Pressure Humidity
00:00 +14°C° 0 mm 1 mps 621 mmHg 77%
01:00 +14°C° 0 mm 1 mps 620 mmHg 76%
02:00 +13°C° 0 mm 1 mps 620 mmHg 76%
03:00 +13°C° 0 mm 2 mps 620 mmHg 76%
04:00 +13°C° 0 mm 2 mps 620 mmHg 75%
05:00 +14°C° 0 mm 2 mps 620 mmHg 74%
06:00 +14°C° 0 mm 2 mps 620 mmHg 74%
07:00 +16°C° 0 mm 1 mps 621 mmHg 66%
08:00 +19°C° 0 mm 1 mps 622 mmHg 58%
09:00 +22°C° 0 mm 1 mps 622 mmHg 50%
10:00 +23°C° 0 mm 1 mps 623 mmHg 47%
11:00 +24°C° 0 mm 2 mps 623 mmHg 44%
12:00 +25°C° 0 mm 2 mps 623 mmHg 41%
13:00 +25°C° 0.1 mm 2 mps 623 mmHg 43%
14:00 +26°C° 0.1 mm 2 mps 623 mmHg 44%
15:00 +26°C° 0.1 mm 2 mps 623 mmHg 46%
16:00 +25°C° 0 mm 2 mps 622 mmHg 52%
17:00 +23°C° 0 mm 1 mps 622 mmHg 59%
18:00 +22°C° 0 mm 1 mps 622 mmHg 66%
19:00 +21°C° 0 mm 1 mps 621 mmHg 69%
20:00 +19°C° 0 mm 1 mps 621 mmHg 72%
21:00 +16°C° 0 mm 1 mps 620 mmHg 75%
22:00 +16°C° 0 mm 1 mps 620 mmHg 74%
23:00 +16°C° 0 mm 1 mps 620 mmHg 72%
Show more